Time,TemperatureF,DewpointF,PressureIn,WindDirection,WindDirectionDegrees,WindSpeedMPH,WindSpeedGustMPH,Humidity,HourlyPrecipIn,Conditions,Clouds,dailyrainin,SoftwareType,DateUTC
2013-04-21 00:00:00,44.4,25.7,30.18,North,357,3.4,10.0,47,-99.99,,,-99.99,PWS SA v1.10,2013-04-21 04:00:00,
2013-04-21 00:02:00,44.4,26.2,30.18,West,280,3.4,8.0,48,-99.99,,,-99.99,PWS SA v1.10,2013-04-21 04:02:00,
2013-04-21 00:04:00,44.4,26.4,30.18,North,0,0.0,8.0,49,-99.99,,,-99.99,PWS SA v1.10,2013-04-21 04:04:00,
2013-04-21 00:06:00,44.5,26.3,30.18,WSW,250,1.7,8.0,49,-99.99,,,-99.99,PWS SA v1.10,2013-04-21 04:06:00,
2013-04-21 00:12:00,44.2,25.7,30.17,North,0,0.0,6.0,48,-99.99,,,-99.99,PWS SA v1.10,2013-04-21 04:12:00,
2013-04-21 00:18:00,43.9,25.9,30.18,North,0,0.0,6.0,49,-99.99,,,-99.99,PWS SA v1.10,2013-04-21 04:18:00,
2013-04-21 00:24:00,43.5,24.6,30.18,WNW,282,5.1,6.0,47,-99.99,,,-99.99,PWS SA v1.10,2013-04-21 04:24:00,
2013-04-21 00:30:00,43.5,25.9,30.19,NW,304,5.1,5.1,49,-99.99,,,-99.99,PWS SA v1.10,2013-04-21 04:30:00,
2013-04-21 00:36:00,43.2,25.7,30.19,NNW,337,6.8,6.8,49,-99.99,,,-99.99,PWS SA v1.10,2013-04-21 04:36:00,
2013-04-21 00:42:00,43.1,25.9,30.19,West,272,6.8,6.8,50,-99.99,,,-99.99,PWS SA v1.10,2013-04-21 04:42:00,
2013-04-21 00:48:00,43.1,26.5,30.20,WNW,286,1.7,6.0,51,-99.99,,,-99.99,PWS SA v1.10,2013-04-21 04:48:00,
2013-04-21 00:54:00,43.1,25.6,30.20,North,0,0.0,6.0,50,-99.99,,,-99.99,PWS SA v1.10,2013-04-21 04:54:00,
2013-04-21 01:00:00,42.8,24.4,30.20,WSW,248,1.7,6.0,48,-99.99,,,-99.99,PWS SA v1.10,2013-04-21 05:00:00,
2013-04-21 01:06:00,42.4,26.0,30.21,West,262,3.4,6.0,52,-99.99,,,-99.99,PWS SA v1.10,2013-04-21 05:06:00,
2013-04-21 01:12:00,42.4,25.9,30.21,West,270,1.7,5.0,52,-99.99,,,-99.99,PWS SA v1.10,2013-04-21 05:12:00,
2013-04-21 01:18:00,42.2,26.5,30.21,WNW,290,1.7,5.0,54,-99.99,,,-99.99,PWS SA v1.10,2013-04-21 05:18:00,
2013-04-21 01:24:00,41.7,23.8,30.22,NW,320,1.7,12.0,49,-99.99,,,-99.99,PWS SA v1.10,2013-04-21 05:24:00,
2013-04-21 01:30:00,41.5,24.9,30.22,North,0,0.0,12.0,51,-99.99,,,-99.99,PWS SA v1.10,2013-04-21 05:30:00,
2013-04-21 01:36:00,41.3,24.0,30.22,North,0,0.0,8.0,49,-99.99,,,-99.99,PWS SA v1.10,2013-04-21 05:36:00,
2013-04-21 01:42:00,40.9,24.9,30.22,NW,326,3.4,8.0,52,-99.99,,,-99.99,PWS SA v1.10,2013-04-21 05:42:00,
2013-04-21 01:48:00,41.0,25.8,30.22,SW,225,1.7,8.0,55,-99.99,,,-99.99,PWS SA v1.10,2013-04-21 05:48:00,
2013-04-21 01:54:00,40.3,24.9,30.23,ESE,103,1.7,3.0,54,-99.99,,,-99.99,PWS SA v1.10,2013-04-21 05:54:00,
2013-04-21 02:00:00,40.3,24.4,30.23,West,265,3.4,3.4,53,-99.99,,,-99.99,PWS SA v1.10,2013-04-21 06:00:00,
2013-04-21 02:06:00,40.2,23.9,30.23,NNE,24,1.7,10.0,52,-99.99,,,-99.99,PWS SA v1.10,2013-04-21 06:06:00,
2013-04-21 02:12:00,40.0,23.6,30.23,North,0,0.0,10.0,51,-99.99,,,-99.99,PWS SA v1.10,2013-04-21 06:12:00,
2013-04-21 02:18:00,39.9,23.7,30.24,North,0,0.0,6.0,52,-99.99,,,-99.99,PWS SA v1.10,2013-04-21 06:18:00,
2013-04-21 02:24:00,39.5,24.6,30.25,North,0,0.0,6.0,54,-99.99,,,-99.99,PWS SA v1.10,2013-04-21 06:24:00,
2013-04-21 02:30:00,39.4,24.6,30.25,North,0,0.0,1.0,54,-99.99,,,-99.99,PWS SA v1.10,2013-04-21 06:30:00,
2013-04-21 02:36:00,39.2,23.9,30.25,North,0,0.0,3.0,53,-99.99,,,-99.99,PWS SA v1.10,2013-04-21 06:36:00,
2013-04-21 02:42:00,39.0,25.0,30.25,North,0,0.0,3.0,56,-99.99,,,-99.99,PWS SA v1.10,2013-04-21 06:42:00,
2013-04-21 02:48:00,38.9,23.9,30.26,North,0,0.0,1.0,54,-99.99,,,-99.99,PWS SA v1.10,2013-04-21 06:48:00,
2013-04-21 02:54:00,38.9,24.4,30.25,North,0,0.0,0.0,56,-99.99,,,-99.99,PWS SA v1.10,2013-04-21 06:54:00,
2013-04-21 03:00:00,38.6,23.9,30.26,NNE,31,3.4,3.4,55,-99.99,,,-99.99,PWS SA v1.10,2013-04-21 07:00:00,
2013-04-21 03:06:00,38.5,24.6,30.27,WSW,246,1.7,3.0,57,-99.99,,,-99.99,PWS SA v1.10,2013-04-21 07:06:00,
2013-04-21 03:12:00,38.4,24.1,30.27,North,0,0.0,3.0,56,-99.99,,,-99.99,PWS SA v1.10,2013-04-21 07:12:00,
2013-04-21 03:18:00,38.2,22.4,30.27,North,350,3.4,5.0,53,-99.99,,,-99.99,PWS SA v1.10,2013-04-21 07:18:00,
2013-04-21 03:24:00,38.0,22.4,30.27,North,0,0.0,5.0,53,-99.99,,,-99.99,PWS SA v1.10,2013-04-21 07:24:00,
2013-04-21 03:30:00,37.8,23.8,30.28,NW,313,3.4,5.0,56,-99.99,,,-99.99,PWS SA v1.10,2013-04-21 07:30:00,
2013-04-21 03:36:00,38.0,23.4,30.27,North,0,0.0,5.0,56,-99.99,,,-99.99,PWS SA v1.10,2013-04-21 07:36:00,
2013-04-21 03:42:00,37.7,24.0,30.28,North,0,0.0,3.0,57,-99.99,,,-99.99,PWS SA v1.10,2013-04-21 07:42:00,
2013-04-21 03:48:00,37.5,22.8,30.28,North,0,0.0,3.0,54,-99.99,,,-99.99,PWS SA v1.10,2013-04-21 07:48:00,
2013-04-21 03:54:00,37.4,24.3,30.28,North,0,0.0,1.0,58,-99.99,,,-99.99,PWS SA v1.10,2013-04-21 07:54:00,
2013-04-21 04:00:00,37.0,23.7,30.29,North,0,0.0,1.0,57,-99.99,,,-99.99,PWS SA v1.10,2013-04-21 08:00:00,
2013-04-21 04:06:00,36.8,23.4,30.28,North,0,0.0,1.0,57,-99.99,,,-99.99,PWS SA v1.10,2013-04-21 08:06:00,
2013-04-21 04:12:00,37.1,24.1,30.29,North,0,0.0,1.0,58,-99.99,,,-99.99,PWS SA v1.10,2013-04-21 08:12:00,
2013-04-21 04:18:00,37.2,24.3,30.28,North,0,0.0,1.0,59,-99.99,,,-99.99,PWS SA v1.10,2013-04-21 08:18:00,
2013-04-21 04:24:00,36.7,22.2,30.30,North,0,0.0,5.0,54,-99.99,,,-99.99,PWS SA v1.10,2013-04-21 08:24:00,
2013-04-21 04:30:00,36.7,23.7,30.30,West,281,1.7,6.0,58,-99.99,,,-99.99,PWS SA v1.10,2013-04-21 08:30:00,
2013-04-21 04:36:00,36.7,23.1,30.29,North,0,0.0,6.0,57,-99.99,,,-99.99,PWS SA v1.10,2013-04-21 08:36:00,
2013-04-21 04:42:00,36.5,22.3,30.30,North,0,0.0,1.0,56,-99.99,,,-99.99,PWS SA v1.10,2013-04-21 08:42:00,
2013-04-21 04:48:00,36.2,23.4,30.30,WSW,253,1.7,1.7,59,-99.99,,,-99.99,PWS SA v1.10,2013-04-21 08:48:00,
2013-04-21 04:54:00,36.6,25.0,30.29,North,0,0.0,1.0,62,-99.99,,,-99.99,PWS SA v1.10,2013-04-21 08:54:00,
2013-04-21 05:00:00,36.1,23.4,30.30,North,0,0.0,1.0,59,-99.99,,,-99.99,PWS SA v1.10,2013-04-21 09:00:00,
2013-04-21 05:06:00,36.0,23.4,30.31,North,0,0.0,1.0,59,-99.99,,,-99.99,PWS SA v1.10,2013-04-21 09:06:00,
2013-04-21 05:12:00,36.1,24.1,30.32,North,0,0.0,1.0,61,-99.99,,,-99.99,PWS SA v1.10,2013-04-21 09:12:00,
2013-04-21 05:18:00,35.8,24.1,30.31,North,0,0.0,1.0,61,-99.99,,,-99.99,PWS SA v1.10,2013-04-21 09:18:00,
2013-04-21 05:24:00,35.6,23.2,30.32,North,0,0.0,3.0,60,-99.99,,,-99.99,PWS SA v1.10,2013-04-21 09:24:00,
2013-04-21 05:30:00,35.5,23.4,30.33,North,0,0.0,3.0,60,-99.99,,,-99.99,PWS SA v1.10,2013-04-21 09:30:00,
2013-04-21 05:36:00,35.9,25.2,30.33,North,0,0.0,1.0,64,-99.99,,,-99.99,PWS SA v1.10,2013-04-21 09:36:00,
2013-04-21 05:42:00,35.3,23.1,30.33,North,0,0.0,1.0,60,-99.99,,,-99.99,PWS SA v1.10,2013-04-21 09:42:00,
2013-04-21 05:48:00,35.4,24.3,30.34,North,0,0.0,1.0,63,-99.99,,,-99.99,PWS SA v1.10,2013-04-21 09:48:00,
2013-04-21 05:54:00,35.0,24.3,30.34,North,0,0.0,1.0,63,-99.99,,,-99.99,PWS SA v1.10,2013-04-21 09:54:00,
2013-04-21 06:00:00,35.2,24.3,30.35,North,0,0.0,1.0,64,-99.99,,,-99.99,PWS SA v1.10,2013-04-21 10:00:00,
2013-04-21 06:06:00,35.1,24.0,30.35,North,0,0.0,1.0,63,-99.99,,,-99.99,PWS SA v1.10,2013-04-21 10:06:00,
2013-04-21 06:12:00,34.8,24.0,30.35,North,0,0.0,1.0,63,-99.99,,,-99.99,PWS SA v1.10,2013-04-21 10:12:00,
2013-04-21 06:18:00,35.2,23.8,30.36,North,0,0.0,1.0,62,-99.99,,,-99.99,PWS SA v1.10,2013-04-21 10:18:00,
2013-04-21 06:24:00,34.9,23.9,30.36,North,0,0.0,1.0,63,-99.99,,,-99.99,PWS SA v1.10,2013-04-21 10:24:00,
2013-04-21 06:30:00,35.2,25.0,30.37,North,0,0.0,1.0,66,-99.99,,,-99.99,PWS SA v1.10,2013-04-21 10:30:00,
2013-04-21 06:36:00,35.2,25.0,30.37,North,0,0.0,0.0,66,-99.99,,,-99.99,PWS SA v1.10,2013-04-21 10:36:00,
2013-04-21 06:42:00,35.5,25.0,30.38,West,275,1.7,1.7,65,-99.99,,,-99.99,PWS SA v1.10,2013-04-21 10:42:00,
2013-04-21 06:48:00,35.4,24.4,30.38,North,0,0.0,3.0,63,-99.99,,,-99.99,PWS SA v1.10,2013-04-21 10:48:00,
2013-04-21 06:54:00,36.0,24.1,30.39,NW,307,1.7,3.0,62,-99.99,,,-99.99,PWS SA v1.10,2013-04-21 10:54:00,
2013-04-21 07:00:00,36.1,24.2,30.39,WNW,284,1.7,5.0,62,-99.99,,,-99.99,PWS SA v1.10,2013-04-21 11:00:00,
2013-04-21 07:06:00,36.2,24.9,30.40,North,0,0.0,5.0,63,-99.99,,,-99.99,PWS SA v1.10,2013-04-21 11:06:00,
2013-04-21 07:12:00,36.5,23.7,30.41,North,0,0.0,3.0,59,-99.99,,,-99.99,PWS SA v1.10,2013-04-21 11:12:00,
2013-04-21 07:18:00,36.7,24.4,30.41,North,0,0.0,3.0,60,-99.99,,,-99.99,PWS SA v1.10,2013-04-21 11:18:00,
2013-04-21 07:24:00,37.0,24.6,30.41,ENE,73,3.4,3.4,61,-99.99,,,-99.99,PWS SA v1.10,2013-04-21 11:24:00,
2013-04-21 07:30:00,37.3,23.9,30.42,WNW,295,1.7,3.0,58,-99.99,,,-99.99,PWS SA v1.10,2013-04-21 11:30:00,
2013-04-21 07:36:00,37.5,24.2,30.42,North,0,0.0,3.0,59,-99.99,,,-99.99,PWS SA v1.10,2013-04-21 11:36:00,
2013-04-21 07:42:00,37.9,24.3,30.41,North,0,0.0,3.0,57,-99.99,,,-99.99,PWS SA v1.10,2013-04-21 11:42:00,
2013-04-21 07:48:00,38.4,24.8,30.42,NW,305,1.7,1.7,58,-99.99,,,-99.99,PWS SA v1.10,2013-04-21 11:48:00,
2013-04-21 07:54:00,38.4,23.6,30.43,NNE,31,3.4,5.0,55,-99.99,,,-99.99,PWS SA v1.10,2013-04-21 11:54:00,
2013-04-21 08:00:00,38.5,24.0,30.43,NW,313,3.4,5.0,56,-99.99,,,-99.99,PWS SA v1.10,2013-04-21 12:00:00,
2013-04-21 08:06:00,38.8,24.3,30.43,North,0,0.0,3.0,56,-99.99,,,-99.99,PWS SA v1.10,2013-04-21 12:06:00,
2013-04-21 08:12:00,39.4,24.4,30.43,East,80,1.7,3.0,55,-99.99,,,-99.99,PWS SA v1.10,2013-04-21 12:12:00,
2013-04-21 08:18:00,39.5,24.0,30.43,NNW,337,5.1,5.1,54,-99.99,,,-99.99,PWS SA v1.10,2013-04-21 12:18:00,
2013-04-21 08:24:00,39.6,22.0,30.44,North,11,5.1,8.0,49,-99.99,,,-99.99,PWS SA v1.10,2013-04-21 12:24:00,
2013-04-21 08:30:00,40.0,22.1,30.44,NE,38,6.8,8.0,48,-99.99,,,-99.99,PWS SA v1.10,2013-04-21 12:30:00,
2013-04-21 08:36:00,40.4,23.0,30.44,North,0,0.0,8.0,49,-99.99,,,-99.99,PWS SA v1.10,2013-04-21 12:36:00,
2013-04-21 08:42:00,40.4,23.0,30.44,North,7,3.4,6.0,49,-99.99,,,-99.99,PWS SA v1.10,2013-04-21 12:42:00,
2013-04-21 08:48:00,40.7,23.6,30.44,ENE,59,6.8,6.8,50,-99.99,,,-99.99,PWS SA v1.10,2013-04-21 12:48:00,
2013-04-21 08:54:00,40.7,22.9,30.45,NW,312,6.8,10.0,48,-99.99,,,-99.99,PWS SA v1.10,2013-04-21 12:54:00,
2013-04-21 09:00:00,40.9,23.1,30.45,NE,41,1.7,10.0,49,-99.99,,,-99.99,PWS SA v1.10,2013-04-21 13:00:00,
2013-04-21 09:06:00,41.5,23.7,30.44,North,0,0.0,6.0,50,-99.99,,,-99.99,PWS SA v1.10,2013-04-21 13:06:00,
2013-04-21 09:12:00,41.6,23.8,30.44,ENE,58,6.8,6.8,50,-99.99,,,-99.99,PWS SA v1.10,2013-04-21 13:12:00,
2013-04-21 09:18:00,41.2,22.9,30.45,North,0,0.0,8.0,49,-99.99,,,-99.99,PWS SA v1.10,2013-04-21 13:18:00,
2013-04-21 09:24:00,41.3,22.9,30.45,North,0,0.0,8.0,49,-99.99,,,-99.99,PWS SA v1.10,2013-04-21 13:24:00,
2013-04-21 09:30:00,41.5,22.9,30.44,NE,49,1.7,5.0,48,-99.99,,,-99.99,PWS SA v1.10,2013-04-21 13:30:00,
2013-04-21 09:36:00,41.7,22.4,30.46,North,0,0.0,10.0,47,-99.99,,,-99.99,PWS SA v1.10,2013-04-21 13:36:00,
2013-04-21 09:42:00,42.0,22.4,30.45,NNE,19,3.4,10.0,46,-99.99,,,-99.99,PWS SA v1.10,2013-04-21 13:42:00,
2013-04-21 09:48:00,42.1,22.2,30.46,NNE,32,5.1,5.1,46,-99.99,,,-99.99,PWS SA v1.10,2013-04-21 13:48:00,
2013-04-21 09:54:00,42.5,22.4,30.46,NNE,19,5.1,5.1,46,-99.99,,,-99.99,PWS SA v1.10,2013-04-21 13:54:00,
2013-04-21 10:00:00,42.4,22.8,30.46,North,0,0.0,5.0,47,-99.99,,,-99.99,PWS SA v1.10,2013-04-21 14:00:00,
2013-04-21 10:06:00,42.4,23.6,30.46,NW,318,1.7,6.0,47,-99.99,,,-99.99,PWS SA v1.10,2013-04-21 14:06:00,
2013-04-21 10:12:00,43.4,23.4,30.47,North,0,0.0,6.0,46,-99.99,,,-99.99,PWS SA v1.10,2013-04-21 14:12:00,
2013-04-21 10:18:00,43.1,22.8,30.48,North,0,0.0,6.0,45,-99.99,,,-99.99,PWS SA v1.10,2013-04-21 14:18:00,
2013-04-21 10:24:00,43.4,22.4,30.47,NNE,21,1.7,6.0,44,-99.99,,,-99.99,PWS SA v1.10,2013-04-21 14:24:00,
2013-04-21 10:30:00,43.7,22.2,30.47,NNE,33,5.1,6.0,43,-99.99,,,-99.99,PWS SA v1.10,2013-04-21 14:30:00,
2013-04-21 10:36:00,43.8,22.6,30.48,North,0,0.0,6.0,43,-99.99,,,-99.99,PWS SA v1.10,2013-04-21 14:36:00,
2013-04-21 10:42:00,44.7,24.0,30.48,NNE,15,5.1,5.1,45,-99.99,,,-99.99,PWS SA v1.10,2013-04-21 14:42:00,
2013-04-21 10:48:00,44.4,22.4,30.47,North,0,0.0,10.0,42,-99.99,,,-99.99,PWS SA v1.10,2013-04-21 14:48:00,
2013-04-21 10:54:00,44.9,23.6,30.48,NE,37,3.4,10.0,44,-99.99,,,-99.99,PWS SA v1.10,2013-04-21 14:54:00,
2013-04-21 11:00:00,45.1,23.2,30.48,NE,42,1.7,10.0,43,-99.99,,,-99.99,PWS SA v1.10,2013-04-21 15:00:00,
2013-04-21 11:06:00,44.7,21.8,30.48,NE,46,1.7,6.0,40,-99.99,,,-99.99,PWS SA v1.10,2013-04-21 15:06:00,
2013-04-21 11:12:00,45.8,22.5,30.48,NE,50,6.8,10.0,40,-99.99,,,-99.99,PWS SA v1.10,2013-04-21 15:12:00,
2013-04-21 11:18:00,46.5,23.6,30.48,NE,53,1.7,10.0,41,-99.99,,,-99.99,PWS SA v1.10,2013-04-21 15:18:00,
2013-04-21 11:24:00,46.8,24.2,30.48,North,360,1.7,6.0,42,-99.99,,,-99.99,PWS SA v1.10,2013-04-21 15:24:00,
2013-04-21 11:30:00,47.1,25.3,30.49,West,262,5.1,5.1,43,-99.99,,,-99.99,PWS SA v1.10,2013-04-21 15:30:00,
2013-04-21 11:36:00,47.5,25.0,30.49,NNW,339,1.7,8.0,42,-99.99,,,-99.99,PWS SA v1.10,2013-04-21 15:36:00,
2013-04-21 11:42:00,47.3,24.4,30.49,North,0,0.0,8.0,41,-99.99,,,-99.99,PWS SA v1.10,2013-04-21 15:42:00,
2013-04-21 11:48:00,47.5,23.9,30.48,North,0,0.0,6.0,40,-99.99,,,-99.99,PWS SA v1.10,2013-04-21 15:48:00,
2013-04-21 11:54:00,47.7,25.1,30.48,North,359,3.4,5.0,41,-99.99,,,-99.99,PWS SA v1.10,2013-04-21 15:54:00,
2013-04-21 12:00:00,48.2,24.9,30.48,North,0,0.0,5.0,40,-99.99,,,-99.99,PWS SA v1.10,2013-04-21 16:00:00,
2013-04-21 12:06:00,48.4,24.3,30.48,North,0,0.0,5.0,39,-99.99,,,-99.99,PWS SA v1.10,2013-04-21 16:06:00,
2013-04-21 12:12:00,48.2,24.8,30.48,North,0,0.0,8.0,40,-99.99,,,-99.99,PWS SA v1.10,2013-04-21 16:12:00,
2013-04-21 12:18:00,49.3,25.2,30.49,North,0,0.0,8.0,40,-99.99,,,-99.99,PWS SA v1.10,2013-04-21 16:18:00,
2013-04-21 12:24:00,49.7,24.8,30.48,North,8,3.4,8.0,38,-99.99,,,-99.99,PWS SA v1.10,2013-04-21 16:24:00,
2013-04-21 12:30:00,49.4,23.1,30.49,NNE,18,3.4,6.0,36,-99.99,,,-99.99,PWS SA v1.10,2013-04-21 16:30:00,
2013-04-21 12:36:00,50.3,25.6,30.49,NE,39,5.1,6.0,38,-99.99,,,-99.99,PWS SA v1.10,2013-04-21 16:36:00,
2013-04-21 12:42:00,49.8,24.4,30.48,East,87,1.7,6.0,37,-99.99,,,-99.99,PWS SA v1.10,2013-04-21 16:42:00,
2013-04-21 12:48:00,50.1,24.7,30.48,East,101,1.7,6.0,37,-99.99,,,-99.99,PWS SA v1.10,2013-04-21 16:48:00,
2013-04-21 12:54:00,50.1,24.2,30.48,WSW,254,3.4,6.0,36,-99.99,,,-99.99,PWS SA v1.10,2013-04-21 16:54:00,
2013-04-21 13:00:00,50.0,23.3,30.48,NNE,13,3.4,5.0,35,-99.99,,,-99.99,PWS SA v1.10,2013-04-21 17:00:00,
2013-04-21 13:06:00,50.5,24.2,30.48,North,0,0.0,6.0,36,-99.99,,,-99.99,PWS SA v1.10,2013-04-21 17:06:00,
2013-04-21 13:12:00,51.0,23.3,30.48,NNE,21,3.4,6.0,34,-99.99,,,-99.99,PWS SA v1.10,2013-04-21 17:12:00,
2013-04-21 13:18:00,51.8,24.8,30.48,North,0,0.0,8.0,35,-99.99,,,-99.99,PWS SA v1.10,2013-04-21 17:18:00,
2013-04-21 13:24:00,52.0,24.0,30.49,North,0,0.0,8.0,34,-99.99,,,-99.99,PWS SA v1.10,2013-04-21 17:24:00,
2013-04-21 13:30:00,52.0,23.6,30.48,NNE,19,5.1,5.1,33,-99.99,,,-99.99,PWS SA v1.10,2013-04-21 17:30:00,
2013-04-21 13:36:00,52.9,26.4,30.48,North,0,0.0,5.0,36,-99.99,,,-99.99,PWS SA v1.10,2013-04-21 17:36:00,
2013-04-21 13:42:00,53.8,26.6,30.48,East,92,5.1,5.1,35,-99.99,,,-99.99,PWS SA v1.10,2013-04-21 17:42:00,
2013-04-21 13:48:00,53.9,26.4,30.48,North,0,0.0,6.0,34,-99.99,,,-99.99,PWS SA v1.10,2013-04-21 17:48:00,
2013-04-21 13:54:00,55.0,28.5,30.48,North,0,0.0,6.0,36,-99.99,,,-99.99,PWS SA v1.10,2013-04-21 17:54:00,
2013-04-21 14:00:00,53.9,25.4,30.48,North,0,0.0,6.0,33,-99.99,,,-99.99,PWS SA v1.10,2013-04-21 18:00:00,
2013-04-21 14:06:00,53.4,23.7,30.48,NE,42,3.4,3.4,31,-99.99,,,-99.99,PWS SA v1.10,2013-04-21 18:06:00,
2013-04-21 14:12:00,54.8,25.7,30.48,NE,55,1.7,3.0,33,-99.99,,,-99.99,PWS SA v1.10,2013-04-21 18:12:00,
2013-04-21 14:18:00,54.6,25.4,30.48,North,0,0.0,5.0,32,-99.99,,,-99.99,PWS SA v1.10,2013-04-21 18:18:00,
2013-04-21 14:24:00,54.8,25.2,30.48,North,0,0.0,6.0,32,-99.99,,,-99.99,PWS SA v1.10,2013-04-21 18:24:00,
2013-04-21 14:30:00,52.8,22.2,30.48,North,0,0.0,6.0,29,-99.99,,,-99.99,PWS SA v1.10,2013-04-21 18:30:00,
2013-04-21 14:36:00,53.6,23.4,30.48,North,0,0.0,8.0,31,-99.99,,,-99.99,PWS SA v1.10,2013-04-21 18:36:00,
2013-04-21 14:42:00,54.3,25.3,30.47,ENE,68,6.8,8.0,33,-99.99,,,-99.99,PWS SA v1.10,2013-04-21 18:42:00,
2013-04-21 14:48:00,55.3,26.5,30.48,West,273,1.7,8.0,33,-99.99,,,-99.99,PWS SA v1.10,2013-04-21 18:48:00,
2013-04-21 14:54:00,54.8,23.5,30.47,North,0,0.0,6.0,30,-99.99,,,-99.99,PWS SA v1.10,2013-04-21 18:54:00,
2013-04-21 15:00:00,54.0,22.7,30.47,North,0,0.0,13.0,29,-99.99,,,-99.99,PWS SA v1.10,2013-04-21 19:00:00,
2013-04-21 15:06:00,55.6,25.4,30.47,NE,56,3.4,13.0,32,-99.99,,,-99.99,PWS SA v1.10,2013-04-21 19:06:00,
2013-04-21 15:12:00,53.6,21.9,30.48,NNE,26,1.7,6.0,28,-99.99,,,-99.99,PWS SA v1.10,2013-04-21 19:12:00,
2013-04-21 15:18:00,54.7,24.5,30.47,NNE,31,5.1,6.0,31,-99.99,,,-99.99,PWS SA v1.10,2013-04-21 19:18:00,
2013-04-21 15:24:00,55.4,24.1,30.48,NE,52,1.7,6.0,30,-99.99,,,-99.99,PWS SA v1.10,2013-04-21 19:24:00,
2013-04-21 15:30:00,55.6,25.3,30.48,NE,44,1.7,5.0,30,-99.99,,,-99.99,PWS SA v1.10,2013-04-21 19:30:00,
2013-04-21 15:36:00,56.8,25.6,30.48,ENE,57,3.4,8.0,31,-99.99,,,-99.99,PWS SA v1.10,2013-04-21 19:36:00,
2013-04-21 15:42:00,57.4,25.4,30.48,NW,313,1.7,8.0,30,-99.99,,,-99.99,PWS SA v1.10,2013-04-21 19:42:00,
2013-04-21 15:48:00,56.6,24.2,30.48,North,0,0.0,8.0,29,-99.99,,,-99.99,PWS SA v1.10,2013-04-21 19:48:00,
2013-04-21 15:54:00,57.3,25.5,30.48,NNE,16,1.7,5.0,30,-99.99,,,-99.99,PWS SA v1.10,2013-04-21 19:54:00,
2013-04-21 16:00:00,54.8,22.8,30.48,North,360,3.4,6.0,28,-99.99,,,-99.99,PWS SA v1.10,2013-04-21 20:00:00,
2013-04-21 16:06:00,57.1,24.8,30.48,North,0,0.0,6.0,29,-99.99,,,-99.99,PWS SA v1.10,2013-04-21 20:06:00,
2013-04-21 16:12:00,54.3,20.7,30.47,North,0,0.0,3.0,26,-99.99,,,-99.99,PWS SA v1.10,2013-04-21 20:12:00,
2013-04-21 16:18:00,54.5,22.0,30.48,NE,48,3.4,5.0,28,-99.99,,,-99.99,PWS SA v1.10,2013-04-21 20:18:00,
2013-04-21 16:24:00,55.0,21.7,30.47,NNE,25,5.1,5.1,27,-99.99,,,-99.99,PWS SA v1.10,2013-04-21 20:24:00,
2013-04-21 16:30:00,55.4,22.0,30.47,North,0,0.0,5.0,27,-99.99,,,-99.99,PWS SA v1.10,2013-04-21 20:30:00,
2013-04-21 16:36:00,55.9,24.8,30.47,North,0,0.0,5.0,30,-99.99,,,-99.99,PWS SA v1.10,2013-04-21 20:36:00,
2013-04-21 16:42:00,55.7,22.8,30.47,ENE,58,3.4,3.4,28,-99.99,,,-99.99,PWS SA v1.10,2013-04-21 20:42:00,
2013-04-21 16:48:00,53.8,20.8,30.48,NE,35,6.8,13.0,27,-99.99,,,-99.99,PWS SA v1.10,2013-04-21 20:48:00,
2013-04-21 16:54:00,55.1,22.9,30.48,ENE,61,1.7,13.0,29,-99.99,,,-99.99,PWS SA v1.10,2013-04-21 20:54:00,
2013-04-21 17:00:00,54.6,22.0,30.48,North,0,0.0,13.0,28,-99.99,,,-99.99,PWS SA v1.10,2013-04-21 21:00:00,
2013-04-21 17:06:00,54.6,23.4,30.48,North,0,0.0,6.0,30,-99.99,,,-99.99,PWS SA v1.10,2013-04-21 21:06:00,
2013-04-21 17:12:00,54.7,23.3,30.48,North,0,0.0,6.0,29,-99.99,,,-99.99,PWS SA v1.10,2013-04-21 21:12:00,
2013-04-21 17:18:00,53.9,20.5,30.49,NNE,31,3.4,6.0,27,-99.99,,,-99.99,PWS SA v1.10,2013-04-21 21:18:00,
2013-04-21 17:24:00,54.1,21.5,30.48,North,0,0.0,6.0,28,-99.99,,,-99.99,PWS SA v1.10,2013-04-21 21:24:00,
2013-04-21 17:30:00,54.3,21.7,30.49,NNE,32,5.1,5.1,28,-99.99,,,-99.99,PWS SA v1.10,2013-04-21 21:30:00,
2013-04-21 17:36:00,53.9,24.2,30.49,NE,39,3.4,5.0,31,-99.99,,,-99.99,PWS SA v1.10,2013-04-21 21:36:00,
2013-04-21 17:42:00,52.4,23.6,30.49,North,0,0.0,5.0,33,-99.99,,,-99.99,PWS SA v1.10,2013-04-21 21:42:00,
2013-04-21 17:48:00,52.4,26.6,30.49,ESE,112,5.1,6.0,37,-99.99,,,-99.99,PWS SA v1.10,2013-04-21 21:48:00,
2013-04-21 17:54:00,51.6,28.2,30.50,ESE,108,5.1,6.0,41,-99.99,,,-99.99,PWS SA v1.10,2013-04-21 21:54:00,
2013-04-21 18:00:00,50.7,28.3,30.50,SSE,162,5.1,6.0,42,-99.99,,,-99.99,PWS SA v1.10,2013-04-21 22:00:00,
2013-04-21 18:06:00,50.6,27.6,30.50,North,0,0.0,5.0,41,-99.99,,,-99.99,PWS SA v1.10,2013-04-21 22:06:00,
2013-04-21 18:12:00,51.0,27.1,30.50,North,0,0.0,5.0,40,-99.99,,,-99.99,PWS SA v1.10,2013-04-21 22:12:00,
2013-04-21 18:18:00,50.7,27.1,30.50,SE,126,3.4,3.4,40,-99.99,,,-99.99,PWS SA v1.10,2013-04-21 22:18:00,
2013-04-21 18:24:00,50.5,29.3,30.51,SE,129,3.4,5.0,44,-99.99,,,-99.99,PWS SA v1.10,2013-04-21 22:24:00,
2013-04-21 18:30:00,49.9,29.0,30.51,ESE,102,1.7,5.0,45,-99.99,,,-99.99,PWS SA v1.10,2013-04-21 22:30:00,
2013-04-21 18:36:00,48.9,29.1,30.51,ESE,113,1.7,5.0,47,-99.99,,,-99.99,PWS SA v1.10,2013-04-21 22:36:00,
2013-04-21 18:42:00,48.4,29.6,30.51,North,0,0.0,3.0,49,-99.99,,,-99.99,PWS SA v1.10,2013-04-21 22:42:00,
2013-04-21 18:48:00,47.5,28.9,30.52,East,82,3.4,5.0,48,-99.99,,,-99.99,PWS SA v1.10,2013-04-21 22:48:00,
2013-04-21 18:54:00,46.9,27.4,30.52,North,0,0.0,5.0,47,-99.99,,,-99.99,PWS SA v1.10,2013-04-21 22:54:00,
2013-04-21 19:00:00,46.4,27.4,30.52,North,0,0.0,6.0,48,-99.99,,,-99.99,PWS SA v1.10,2013-04-21 23:00:00,
2013-04-21 19:06:00,46.1,27.3,30.52,North,0,0.0,6.0,49,-99.99,,,-99.99,PWS SA v1.10,2013-04-21 23:06:00,
2013-04-21 19:12:00,45.6,27.6,30.53,North,0,0.0,5.0,50,-99.99,,,-99.99,PWS SA v1.10,2013-04-21 23:12:00,
2013-04-21 19:18:00,45.3,26.6,30.54,East,99,5.1,5.1,48,-99.99,,,-99.99,PWS SA v1.10,2013-04-21 23:18:00,
2013-04-21 19:24:00,44.9,26.1,30.54,North,0,0.0,5.0,48,-99.99,,,-99.99,PWS SA v1.10,2013-04-21 23:24:00,
2013-04-21 19:30:00,44.7,26.7,30.54,North,0,0.0,5.0,50,-99.99,,,-99.99,PWS SA v1.10,2013-04-21 23:30:00,
2013-04-21 19:36:00,44.5,26.4,30.54,North,0,0.0,1.0,50,-99.99,,,-99.99,PWS SA v1.10,2013-04-21 23:36:00,
2013-04-21 19:42:00,43.9,26.8,30.54,North,0,0.0,1.0,51,-99.99,,,-99.99,PWS SA v1.10,2013-04-21 23:42:00,
2013-04-21 19:48:00,43.5,26.6,30.55,North,0,0.0,0.0,51,-99.99,,,-99.99,PWS SA v1.10,2013-04-21 23:48:00,
2013-04-21 19:54:00,43.3,27.5,30.55,North,0,0.0,0.0,54,-99.99,,,-99.99,PWS SA v1.10,2013-04-21 23:54:00,
2013-04-21 20:00:00,43.0,28.4,30.55,North,0,0.0,0.0,57,-99.99,,,-99.99,PWS SA v1.10,2013-04-22 00:00:00,
2013-04-21 20:06:00,42.6,27.4,30.56,North,0,0.0,0.0,56,-99.99,,,-99.99,PWS SA v1.10,2013-04-22 00:06:00,
2013-04-21 20:12:00,42.6,26.8,30.56,North,0,0.0,0.0,54,-99.99,,,-99.99,PWS SA v1.10,2013-04-22 00:12:00,
2013-04-21 20:18:00,42.2,27.6,30.56,North,0,0.0,0.0,56,-99.99,,,-99.99,PWS SA v1.10,2013-04-22 00:18:00,
2013-04-21 20:24:00,41.9,27.6,30.57,North,0,0.0,0.0,58,-99.99,,,-99.99,PWS SA v1.10,2013-04-22 00:24:00,
2013-04-21 20:30:00,41.8,28.3,30.57,North,0,0.0,0.0,60,-99.99,,,-99.99,PWS SA v1.10,2013-04-22 00:30:00,
2013-04-21 20:36:00,41.3,28.0,30.57,North,0,0.0,0.0,60,-99.99,,,-99.99,PWS SA v1.10,2013-04-22 00:36:00,
2013-04-21 20:42:00,40.9,29.1,30.57,North,0,0.0,0.0,63,-99.99,,,-99.99,PWS SA v1.10,2013-04-22 00:42:00,
2013-04-21 20:48:00,40.8,29.0,30.58,North,0,0.0,0.0,63,-99.99,,,-99.99,PWS SA v1.10,2013-04-22 00:48:00,
2013-04-21 20:54:00,40.6,28.7,30.58,North,0,0.0,0.0,63,-99.99,,,-99.99,PWS SA v1.10,2013-04-22 00:54:00,
2013-04-21 21:00:00,40.2,29.9,30.59,North,0,0.0,0.0,67,-99.99,,,-99.99,PWS SA v1.10,2013-04-22 01:00:00,
2013-04-21 21:06:00,40.1,29.3,30.59,North,0,0.0,0.0,66,-99.99,,,-99.99,PWS SA v1.10,2013-04-22 01:06:00,
2013-04-21 21:12:00,39.9,30.2,30.59,North,0,0.0,0.0,69,-99.99,,,-99.99,PWS SA v1.10,2013-04-22 01:12:00,
2013-04-21 21:18:00,39.8,29.5,30.59,North,0,0.0,0.0,67,-99.99,,,-99.99,PWS SA v1.10,2013-04-22 01:18:00,
2013-04-21 21:24:00,39.7,29.7,30.60,North,0,0.0,0.0,68,-99.99,,,-99.99,PWS SA v1.10,2013-04-22 01:24:00,
2013-04-21 21:30:00,39.5,29.9,30.60,North,0,0.0,0.0,68,-99.99,,,-99.99,PWS SA v1.10,2013-04-22 01:30:00,
2013-04-21 21:36:00,39.3,29.9,30.60,North,0,0.0,0.0,68,-99.99,,,-99.99,PWS SA v1.10,2013-04-22 01:36:00,
2013-04-21 21:42:00,39.1,30.5,30.60,North,0,0.0,0.0,70,-99.99,,,-99.99,PWS SA v1.10,2013-04-22 01:42:00,
2013-04-21 21:48:00,39.0,30.2,30.60,North,0,0.0,1.0,70,-99.99,,,-99.99,PWS SA v1.10,2013-04-22 01:48:00,
2013-04-21 21:54:00,39.0,29.7,30.60,North,0,0.0,1.0,69,-99.99,,,-99.99,PWS SA v1.10,2013-04-22 01:54:00,
2013-04-21 22:00:00,39.0,29.6,30.61,North,0,0.0,1.0,69,-99.99,,,-99.99,PWS SA v1.10,2013-04-22 02:00:00,
2013-04-21 22:06:00,39.0,29.9,30.60,North,0,0.0,0.0,69,-99.99,,,-99.99,PWS SA v1.10,2013-04-22 02:06:00,
2013-04-21 22:12:00,39.0,29.9,30.60,North,0,0.0,0.0,69,-99.99,,,-99.99,PWS SA v1.10,2013-04-22 02:12:00,
2013-04-21 22:18:00,39.0,30.4,30.61,North,0,0.0,0.0,71,-99.99,,,-99.99,PWS SA v1.10,2013-04-22 02:18:00,
2013-04-21 22:24:00,39.3,30.7,30.61,North,0,0.0,0.0,70,-99.99,,,-99.99,PWS SA v1.10,2013-04-22 02:24:00,
2013-04-21 22:30:00,38.8,30.5,30.60,North,0,0.0,0.0,71,-99.99,,,-99.99,PWS SA v1.10,2013-04-22 02:30:00,
2013-04-21 22:36:00,38.9,30.7,30.61,North,0,0.0,0.0,71,-99.99,,,-99.99,PWS SA v1.10,2013-04-22 02:36:00,
2013-04-21 22:42:00,38.4,30.4,30.62,North,0,0.0,0.0,71,-99.99,,,-99.99,PWS SA v1.10,2013-04-22 02:42:00,
2013-04-21 22:48:00,38.4,31.1,30.62,North,0,0.0,0.0,74,-99.99,,,-99.99,PWS SA v1.10,2013-04-22 02:48:00,
2013-04-21 22:54:00,37.9,30.5,30.62,North,0,0.0,0.0,73,-99.99,,,-99.99,PWS SA v1.10,2013-04-22 02:54:00,
2013-04-21 23:00:00,38.3,31.1,30.62,North,0,0.0,0.0,75,-99.99,,,-99.99,PWS SA v1.10,2013-04-22 03:00:00,
2013-04-21 23:06:00,37.6,30.0,30.62,North,0,0.0,0.0,73,-99.99,,,-99.99,PWS SA v1.10,2013-04-22 03:06:00,
2013-04-21 23:12:00,38.1,30.7,30.62,North,0,0.0,0.0,75,-99.99,,,-99.99,PWS SA v1.10,2013-04-22 03:12:00,
2013-04-21 23:18:00,37.5,30.5,30.62,North,0,0.0,0.0,74,-99.99,,,-99.99,PWS SA v1.10,2013-04-22 03:18:00,
2013-04-21 23:24:00,37.3,29.9,30.61,North,0,0.0,0.0,73,-99.99,,,-99.99,PWS SA v1.10,2013-04-22 03:24:00,
2013-04-21 23:30:00,37.0,30.0,30.62,North,0,0.0,0.0,74,-99.99,,,-99.99,PWS SA v1.10,2013-04-22 03:30:00,
2013-04-21 23:36:00,37.0,30.6,30.61,North,0,0.0,0.0,76,-99.99,,,-99.99,PWS SA v1.10,2013-04-22 03:36:00,
2013-04-21 23:42:00,36.9,30.6,30.61,North,0,0.0,0.0,76,-99.99,,,-99.99,PWS SA v1.10,2013-04-22 03:42:00,
2013-04-21 23:48:00,36.9,30.9,30.61,North,0,0.0,0.0,77,-99.99,,,-99.99,PWS SA v1.10,2013-04-22 03:48:00,
2013-04-21 23:54:00,36.7,30.4,30.62,North,0,0.0,0.0,77,-99.99,,,-99.99,PWS SA v1.10,2013-04-22 03:54:00,